Chicago Midway, IL

4:44 AM CST on December 15, 2019 (GMT -0600)
Chicago-Midway

Weather History for KMDW - October, 2019

Change the Weather History Date:

Thursday, October 3, 2019

  Actual Average Record
Temperature  
Mean Temperature 61 °F 59 °F  
Max Temperature 70 °F 68 °F 91 °F (1954)
Min Temperature 51 °F 50 °F 29 °F (1974)
Degree Days  
Heating Degree Days 4 7  
Month to date heating degree days 4 21  
Since 1 July heating degree days 5 103  
Cooling Degree Days 0 1  
Month to date cooling degree days 21 3  
Year to date cooling degree days 1131 1032  
Growing Degree Days 11 (Base 50)    
Moisture  
Dew Point 55 °F    
Average Humidity 80    
Maximum Humidity 100    
Minimum Humidity 54    
Precipitation  
Precipitation 0.18 in 0.10 in 3.95 in (1954)
Month to date precipitation 0.59 0.29  
Year to date precipitation 38.41 30.15  
Sea Level Pressure  
Sea Level Pressure 30.03 in    
Wind  
Wind Speed 10 mph (WNW)    
Max Wind Speed 22 mph    
Max Gust Speed 29 mph    
Visibility 9 miles    
Events Rain , Thunderstorm    
T = Trace of Precipitation, MM = Missing Value Source: NWS Daily Summary

Daily Weather History Graph

Daily Weather History Graph

Search for Another Location

Airport or City:

Astronomy

Oct. 03, 2019 Rise Set
Actual Time 6:49 AM CDT 6:29 PM CDT
Civil Twilight 6:22 AM CDT 6:57 PM CDT
Nautical Twilight 5:49 AM CDT 7:29 PM CDT
Astronomical Twilight 5:17 AM CDT 8:02 PM CDT
Moon 12:25 PM CDT (10/3) 10:04 PM CDT (10/3)
Length of Visible Light 12h 35m
Length of Day
11h 39m
Waxing Crescent, 30% of the Moon is Illuminated
Oct 3
Waxing Crescent
Oct 5
First Quarter
Oct 13
Full
Oct 21
Last Quarter
Oct 27
New

Hourly Weather History & Observations

Time (CDT) Temp. Dew Point Humidity Pressure Visibility Wind Dir Wind Speed Gust Speed Precip Events Conditions
12:18 AM 63.0 °F 61.0 °F 93% 29.93 in 1.8 mi West 6.9 mph - 0.08 in Rain , Thunderstorm Heavy Thunderstorms and Rain
12:26 AM 63.0 °F 62.1 °F 97% 29.91 in 3.0 mi South 5.8 mph - 0.11 in Rain , Thunderstorm Light Thunderstorms and Rain
12:42 AM 63.0 °F 62.1 °F 97% 29.91 in 3.0 mi SSW 3.5 mph - 0.17 in Rain Rain
12:53 AM 63.0 °F 62.1 °F 97% 29.90 in 6.0 mi South 4.6 mph - 0.19 in Rain Light Rain
1:53 AM 63.0 °F 62.1 °F 97% 29.88 in 5.0 mi Calm Calm - 0.17 in Rain Light Rain
2:53 AM 63.0 °F 62.1 °F 97% 29.87 in 7.0 mi WSW 3.5 mph - 0.01 in   Overcast
3:22 AM 63.0 °F 63.0 °F 100% 29.89 in 8.0 mi West 3.5 mph - N/A   Overcast
3:53 AM 63.0 °F 62.1 °F 97% 29.88 in 8.0 mi WNW 3.5 mph - N/A   Overcast
4:53 AM 63.0 °F 62.1 °F 97% 29.90 in 9.0 mi West 3.5 mph - N/A   Overcast
5:17 AM 63.0 °F 62.1 °F 97% 29.90 in 9.0 mi WNW 4.6 mph - N/A   Overcast
5:53 AM 63.0 °F 62.1 °F 97% 29.91 in 9.0 mi SW 5.8 mph - N/A   Overcast
6:53 AM 64.0 °F 62.1 °F 93% 29.92 in 8.0 mi West 11.5 mph 21.9 mph N/A   Overcast
7:53 AM 63.0 °F 61.0 °F 93% 29.96 in 10.0 mi WNW 10.4 mph - N/A   Overcast
8:36 AM 63.0 °F 60.1 °F 90% 29.97 in 10.0 mi WNW 13.8 mph - N/A   Overcast
8:53 AM 63.0 °F 60.1 °F 90% 29.97 in 10.0 mi WNW 12.7 mph 23.0 mph N/A   Overcast
9:09 AM 62.1 °F 59.0 °F 90% 29.99 in 10.0 mi West 15.0 mph 24.2 mph N/A   Overcast
9:53 AM 62.1 °F 57.9 °F 86% 30.01 in 10.0 mi WNW 13.8 mph 24.2 mph N/A   Overcast
10:53 AM 63.0 °F 57.0 °F 81% 30.03 in 10.0 mi WNW 11.5 mph 24.2 mph N/A   Mostly Cloudy
11:16 AM 64.9 °F 57.0 °F 75% 30.04 in 10.0 mi WNW 13.8 mph 19.6 mph N/A   Mostly Cloudy
11:53 AM 66.0 °F 55.9 °F 70% 30.04 in 10.0 mi WNW 15.0 mph 28.8 mph N/A   Mostly Cloudy
12:53 PM 68.0 °F 54.0 °F 61% 30.05 in 10.0 mi WNW 19.6 mph 27.6 mph N/A   Mostly Cloudy
1:53 PM 66.9 °F 53.1 °F 61% 30.05 in 10.0 mi WNW 15.0 mph 25.3 mph N/A   Mostly Cloudy
2:53 PM 66.0 °F 53.1 °F 63% 30.07 in 10.0 mi WNW 15.0 mph - N/A   Mostly Cloudy
3:53 PM 63.0 °F 51.1 °F 65% 30.10 in 10.0 mi WNW 12.7 mph 21.9 mph N/A   Mostly Cloudy
4:53 PM 62.1 °F 50.0 °F 65% 30.12 in 10.0 mi WNW 10.4 mph - N/A   Mostly Cloudy
5:53 PM 61.0 °F 48.0 °F 62% 30.14 in 10.0 mi WNW 11.5 mph - N/A   Mostly Cloudy
6:53 PM 59.0 °F 46.9 °F 64% 30.17 in 10.0 mi NW 9.2 mph - N/A   Mostly Cloudy
7:53 PM 57.0 °F 45.0 °F 64% 30.20 in 10.0 mi NW 11.5 mph - N/A   Mostly Cloudy
8:53 PM 57.0 °F 45.0 °F 64% 30.22 in 10.0 mi NW 12.7 mph - N/A   Mostly Cloudy
9:53 PM 55.9 °F 44.1 °F 64% 30.24 in 10.0 mi NNW 11.5 mph - N/A   Scattered Clouds
10:53 PM 54.0 °F 43.0 °F 66% 30.25 in 10.0 mi NNW 10.4 mph - N/A   Clear
11:53 PM 53.1 °F 43.0 °F 69% 30.25 in 10.0 mi NNW 10.4 mph - N/A   Clear